Bookmark and Share
Track history (hours):
 

Queen Of Nanaimo

Last reported at 2014-Apr-21 04:34 UTC. Time now 2014-Apr-21 04:58 UTC.
Position N 49°00' W 123°08'.

Length 130 m; draft 4 m.

Type: Ship. MMSI: 316001254.

NotesDate/timePositionNaut miles runAvg speedWind from/ knotsBaromVisibWave heightAir tempDewpointWater temp
2014-Apr-21 04:34N 49°00' W 123°08'1312.5
2014-Apr-21 03:33N 48°51' W 123°20'1 0.8
2014-Apr-21 02:33N 48°52' W 123°20'1211.7
2014-Apr-21 01:33N 49°00' W 123°08'7 6.8
2014-Apr-21 00:34N 48°55' W 123°14'6 5.8
2014-Apr-20 23:33N 48°51' W 123°21'4 3.8
2014-Apr-20 22:33N 48°51' W 123°27'0 0.0
2014-Apr-20 21:33N 48°51' W 123°27'6 5.9
2014-Apr-20 20:32N 48°48' W 123°19'3 3.2
2014-Apr-20 19:34N 48°51' W 123°20'8 7.8
2014-Apr-20 18:34N 48°57' W 123°13'5 4.9
2014-Apr-20 17:34N 49°00' W 123°08'10 9.6
2014-Apr-20 16:33N 48°53' W 123°17'3 2.8
2014-Apr-20 15:33N 48°51' W 123°20'3 3.4
2014-Apr-20 14:33N 48°49' W 123°24'3 2.9
2014-Apr-20 13:34N 48°51' W 123°27'0 0.0
2014-Apr-20 12:33N 48°51' W 123°27'0 0.0
2014-Apr-20 11:33N 48°51' W 123°27'0 0.0
2014-Apr-20 10:33N 48°51' W 123°27'0 0.0
2014-Apr-20 09:33N 48°51' W 123°27'0 0.0
2014-Apr-20 08:33N 48°51' W 123°27'0 0.0
2014-Apr-20 07:33N 48°51' W 123°27'0 0.0
2014-Apr-20 06:30N 48°51' W 123°27'3 2.9
2014-Apr-20 05:33N 48°51' W 123°23'3 2.9
2014-Apr-20 04:33N 48°53' W 123°19'1110.7
2014-Apr-20 03:33N 49°00' W 123°08'0 0.0
2014-Apr-20 02:33N 49°00' W 123°08'0 0.0
2014-Apr-20 01:34N 49°00' W 123°08'1110.6
2014-Apr-20 00:33N 48°53' W 123°19'4 4.3
2014-Apr-19 23:34N 48°48' W 123°20'5 5.2
2014-Apr-19 22:33N 48°51' W 123°27'0 0.0
2014-Apr-19 21:31N 48°51' W 123°27'0 0.3
2014-Apr-19 20:33N 48°51' W 123°26'1211.9
2014-Apr-19 19:34N 48°58' W 123°12'1 1.1
2014-Apr-19 18:33N 48°57' W 123°10'9 9.0
2014-Apr-19 17:34N 48°51' W 123°20'2 1.9
2014-Apr-19 16:33N 48°53' W 123°19'1110.7
2014-Apr-19 15:33N 49°00' W 123°08'5 4.5
2014-Apr-19 14:33N 48°57' W 123°12'1111.2
2014-Apr-19 13:33N 48°51' W 123°27'0 0.1
2014-Apr-19 12:34N 48°51' W 123°27'0 0.0
2014-Apr-19 11:33N 48°51' W 123°27'0 0.0
2014-Apr-19 10:33N 48°51' W 123°27'0 0.0
2014-Apr-19 09:33N 48°51' W 123°27'0 0.0
2014-Apr-19 08:33N 48°51' W 123°27'0 0.0
2014-Apr-19 07:33N 48°51' W 123°27'0 0.0
2014-Apr-19 06:33N 48°51' W 123°27'0 0.0
2014-Apr-19 05:34N 48°51' W 123°27'6 6.0
2014-Apr-19 04:33N 48°48' W 123°19'5 4.6
2014-Apr-19 03:33N 48°53' W 123°19'1110.7
2014-Apr-19 02:33N 49°00' W 123°08'8 8.0
2014-Apr-19 01:34N 48°54' W 123°16'4 3.8
2014-Apr-19 00:33N 48°52' W 123°20'8 7.9
2014-Apr-18 23:34N 48°58' W 123°13'4 4.2
2014-Apr-18 22:33N 49°00' W 123°08'1111.3
2014-Apr-18 21:34N 48°52' W 123°19'5 5.3
2014-Apr-18 20:32N 48°51' W 123°27'6 5.9
2014-Apr-18 19:31N 48°48' W 123°19'4 3.7
2014-Apr-18 18:33N 48°52' W 123°19'8 7.8
2014-Apr-18 17:33N 48°58' W 123°12'4 3.8
2014-Apr-18 16:33N 49°00' W 123°08'10 9.6
2014-Apr-18 15:33N 48°53' W 123°17'3 2.8
2014-Apr-18 14:32N 48°51' W 123°20'3 3.5
2014-Apr-18 13:33N 48°49' W 123°24'3 3.0
2014-Apr-18 12:32N 48°51' W 123°27'0 0.0
2014-Apr-18 11:33N 48°51' W 123°27'0 0.0
2014-Apr-18 10:33N 48°51' W 123°27'0 0.0
2014-Apr-18 09:33N 48°51' W 123°27'0 0.0
2014-Apr-18 08:32N 48°51' W 123°27'0 0.0
2014-Apr-18 07:33N 48°51' W 123°27'0 0.0
2014-Apr-18 06:33N 48°51' W 123°27'6 6.1
2014-Apr-18 05:33N 48°48' W 123°19'5 4.7
2014-Apr-18 04:33N 48°53' W 123°19'1110.6
2014-Apr-18 03:33N 49°00' W 123°08'0 0.0
2014-Apr-18 02:33N 49°00' W 123°08'1110.5
2014-Apr-18 01:34N 48°52' W 123°18'1 1.0
2014-Apr-18 00:34N 48°52' W 123°19'8 8.0
2014-Apr-17 23:33N 48°58' W 123°12'4 3.6
2014-Apr-17 22:33N 49°00' W 123°08'1212.0
2014-Apr-17 21:34N 48°52' W 123°20'4 4.1
2014-Apr-17 20:33N 48°51' W 123°26'4 4.1
2014-Apr-17 19:33N 48°51' W 123°20'2 2.1
2014-Apr-17 18:33N 48°53' W 123°19'1110.7
2014-Apr-17 17:33N 49°00' W 123°08'0 0.0
2014-Apr-17 16:33N 49°00' W 123°08'1110.5
2014-Apr-17 15:34N 48°53' W 123°18'2 2.0
2014-Apr-17 14:33N 48°51' W 123°20'3 3.4
2014-Apr-17 13:33N 48°50' W 123°25'2 1.8
2014-Apr-17 12:33N 48°51' W 123°27'0 0.0
2014-Apr-17 11:30N 48°51' W 123°27'0 0.0
2014-Apr-17 10:33N 48°51' W 123°27'0 0.0
2014-Apr-17 09:32N 48°51' W 123°27'0 0.0
2014-Apr-17 08:33N 48°51' W 123°27'0 0.0
2014-Apr-17 07:33N 48°51' W 123°27'0 0.0
2014-Apr-17 06:33N 48°51' W 123°27'0 0.0
2014-Apr-17 05:33N 48°51' W 123°27'6 6.0
2014-Apr-17 04:33N 48°48' W 123°19'5 4.6
2014-Apr-17 03:33N 48°53' W 123°19'1110.6
2014-Apr-17 02:33N 49°00' W 123°08'0 0.1
2014-Apr-17 01:34N 49°00' W 123°08'1110.7
2014-Apr-17 00:34N 48°53' W 123°19'2 1.9
2014-Apr-16 23:33N 48°51' W 123°20'3 3.5
2014-Apr-16 22:33N 48°50' W 123°25'2 1.9
2014-Apr-16 21:33N 48°51' W 123°27'0 0.0
2014-Apr-16 20:33N 48°51' W 123°27'6 6.0
2014-Apr-16 19:33N 48°48' W 123°19'3 3.3
2014-Apr-16 18:33N 48°51' W 123°21'9 9.0
2014-Apr-16 17:33N 48°58' W 123°11'4 3.6
2014-Apr-16 16:33N 49°00' W 123°08'1110.7
2014-Apr-16 15:34N 48°53' W 123°19'3 2.7
2014-Apr-16 14:33N 48°50' W 123°20'3 2.9
2014-Apr-16 13:33N 48°50' W 123°25'2 1.9
2014-Apr-16 12:31N 48°51' W 123°27'0 0.0
2014-Apr-16 11:31N 48°51' W 123°27'0 0.0
2014-Apr-16 10:32N 48°51' W 123°27'1 0.5
2014-Apr-16 09:33N 48°51' W 123°26'4 3.9
2014-Apr-16 08:34N 48°52' W 123°20'5 5.1
2014-Apr-16 07:33N 48°56' W 123°15'6 5.8
2014-Apr-16 06:33N 48°60' W 123°09'1 1.0
2014-Apr-16 05:33N 49°00' W 123°08'0 0.0
2014-Apr-16 04:34N 49°00' W 123°08'0 0.0
2014-Apr-16 03:33N 49°00' W 123°08'0 0.0
2014-Apr-16 02:34N 49°00' W 123°08'0 0.0
2014-Apr-16 01:33N 49°00' W 123°08'0 0.0
2014-Apr-16 00:33N 49°00' W 123°08'0 0.0
2014-Apr-15 23:33N 49°00' W 123°08'0 0.0
2014-Apr-15 22:33N 49°00' W 123°08'0 0.0
2014-Apr-15 21:33N 49°00' W 123°08'0 0.0
2014-Apr-15 20:33N 49°00' W 123°08'0 0.0
2014-Apr-15 19:33N 49°00' W 123°08'0 0.0
2014-Apr-15 18:33N 49°00' W 123°08'0 0.0
2014-Apr-15 17:33N 49°00' W 123°08'0 0.0
2014-Apr-15 16:33N 49°00' W 123°08'0 0.0
2014-Apr-15 15:33N 49°00' W 123°08'0 0.0
2014-Apr-15 14:34N 49°00' W 123°08'0 0.0
2014-Apr-15 12:34N 49°00' W 123°08'0 0.0
2014-Apr-15 11:34N 49°00' W 123°08'0 0.0
2014-Apr-15 10:34N 49°00' W 123°08'0 0.0
2014-Apr-15 09:34N 49°00' W 123°08'0 0.0
2014-Apr-15 08:34N 49°00' W 123°08'0 0.0
2014-Apr-15 07:34N 49°00' W 123°08'0 0.0
2014-Apr-15 06:34N 49°00' W 123°08'0 0.0
2014-Apr-15 05:34N 49°00' W 123°08'0 0.1
2014-Apr-15 03:34N 49°00' W 123°08'8 7.6
2014-Apr-15 02:34N 48°55' W 123°17'8 8.2
2014-Apr-15 01:34N 49°01' W 123°26'1110.7
2014-Apr-15 00:34N 49°08' W 123°13'5 4.9
2014-Apr-14 23:34N 49°07' W 123°05'0 0.1
2014-Apr-14 22:33N 49°07' W 123°05'0 0.0
2014-Apr-14 21:30N 49°07' W 123°05'0 0.0
2014-Apr-14 20:34N 49°07' W 123°05'0 0.0
2014-Apr-14 19:33N 49°07' W 123°05'0 0.0
2014-Apr-14 17:31N 49°07' W 123°05'0 0.0
2014-Apr-14 16:33N 49°07' W 123°05'0 0.0
2014-Apr-14 15:33N 49°07' W 123°05'0 0.0
2014-Apr-14 14:33N 49°07' W 123°05'0 0.0
2014-Apr-13 22:33N 49°07' W 123°05'0 0.0
2014-Apr-13 21:33N 49°07' W 123°05'0 0.0
2014-Apr-13 20:33N 49°07' W 123°05'0 0.0
2014-Apr-13 19:33N 49°07' W 123°05'0 0.0
2014-Apr-13 18:30N 49°07' W 123°05'0 0.0
2014-Apr-13 17:30N 49°07' W 123°05'0 0.0
2014-Apr-13 16:33N 49°07' W 123°05'0 0.0
2014-Apr-13 15:33N 49°07' W 123°05'0 0.0
2014-Apr-13 13:27N 49°07' W 123°05'0 0.0
2014-Apr-13 12:32N 49°07' W 123°05'0 0.0
2014-Apr-13 11:30N 49°07' W 123°05'0 0.0
2014-Apr-13 10:23N 49°07' W 123°05'0 0.0
2014-Apr-13 09:33N 49°07' W 123°05'0 0.0
2014-Apr-13 08:30N 49°07' W 123°05'0 0.0
2014-Apr-13 07:30N 49°07' W 123°05'0 0.0
2014-Apr-13 06:33N 49°07' W 123°05'0 0.0
2014-Apr-13 05:32N 49°07' W 123°05'0 0.0
2014-Apr-13 04:32N 49°07' W 123°05'0 0.0
2014-Apr-13 03:34N 49°07' W 123°05'0 0.0
2014-Apr-13 02:32N 49°07' W 123°05'0 0.0
2014-Apr-13 01:33N 49°07' W 123°05'0 0.0
2014-Apr-13 00:33N 49°07' W 123°05'0 0.0
2014-Apr-12 23:34N 49°07' W 123°05'0 0.0
2014-Apr-12 22:33N 49°07' W 123°05'0 0.0
2014-Apr-12 21:33N 49°07' W 123°05'0 0.0
2014-Apr-12 20:33N 49°07' W 123°05'0 0.0
2014-Apr-12 19:33N 49°07' W 123°05'0 0.0
2014-Apr-12 18:33N 49°07' W 123°05'0 0.0
2014-Apr-12 17:33N 49°07' W 123°05'0 0.0
2014-Apr-12 16:33N 49°07' W 123°05'0 0.0
2014-Apr-12 15:34N 49°07' W 123°05'0 0.0
2014-Apr-12 14:33N 49°07' W 123°05'0 0.0
2014-Apr-12 13:34N 49°07' W 123°05'0 0.0
2014-Apr-12 12:34N 49°07' W 123°05'0 0.0
2014-Apr-12 11:33N 49°07' W 123°05'0 0.0
2014-Apr-12 10:34N 49°07' W 123°05'0 0.0
2014-Apr-12 09:34N 49°07' W 123°05'0 0.0
2014-Apr-12 08:33N 49°07' W 123°05'0 0.0
2014-Apr-12 07:32N 49°07' W 123°05'0 0.0
2014-Apr-12 06:34N 49°07' W 123°05'0 0.0
2014-Apr-12 05:34N 49°07' W 123°05'0 0.0
2014-Apr-12 04:33N 49°07' W 123°05'0 0.0
2014-Apr-12 03:33N 49°07' W 123°05'0 0.0
2014-Apr-12 02:34N 49°07' W 123°05'0 0.0
2014-Apr-12 01:33N 49°07' W 123°05'0 0.0
2014-Apr-12 00:34N 49°07' W 123°05'0 0.0
2014-Apr-11 23:32N 49°07' W 123°05'0 0.0
2014-Apr-11 22:34N 49°07' W 123°05'0 0.0
2014-Apr-11 21:34N 49°07' W 123°05'0 0.0
2014-Apr-11 20:33N 49°07' W 123°05'0 0.0
2014-Apr-11 19:34N 49°07' W 123°05'0 0.0
2014-Apr-11 18:34N 49°07' W 123°05'0 0.0
2014-Apr-11 17:34N 49°07' W 123°05'0 0.0
2014-Apr-11 16:33N 49°07' W 123°05'0 0.0
2014-Apr-11 15:33N 49°07' W 123°05'0 0.0
2014-Apr-11 14:34N 49°07' W 123°05'0 0.0
2014-Apr-11 13:34N 49°07' W 123°05'0 0.0
2014-Apr-11 12:34N 49°07' W 123°05'0 0.0
2014-Apr-11 11:33N 49°07' W 123°05'0 0.0
2014-Apr-11 10:33N 49°07' W 123°05'0 0.0
2014-Apr-11 09:34N 49°07' W 123°05'0 0.0
2014-Apr-11 08:34N 49°07' W 123°05'0 0.0
2014-Apr-11 07:33N 49°07' W 123°05'0 0.0
2014-Apr-11 06:33N 49°07' W 123°05'0 0.0
2014-Apr-11 05:33N 49°07' W 123°05'0 0.0
2014-Apr-11 04:34N 49°07' W 123°05'  

Dump ship's entire track history

sailing weather and tide predictions

Queen Of Nanaimo — VCNX — position and weather